ANNABA current weather conditions

sailwx.info

Wind from 360 at 5 knots

Air temperature 27.0° C
Dewpoint 25.0° C

Last reported at 2015-Jul-29 20:30 UTC.
Time now 2015-Jul-29 22:06 UTC

Location: N 36°50' E 007°49'.
View on Google Maps.

See reports from other nearby stations

  
Tides and Currents Weather Stations Pressure Air Temp Water Temp Dewpoint Dewpoint Depression Visibility Wind Speed Wind Dir Waves Ship Positions
date/time (UTC)wind fromknots sea level pressurealtimeterstation pressurevisibilityair tempwater tempwave heightnotes
2015-Jul-29 21:30 020 6 27.0
2015-Jul-29 21:00 010 5 26.0
2015-Jul-29 20:30 360 5 27.0
2015-Jul-29 20:00 020 6 27.0
2015-Jul-29 19:30 050 7 27.0
2015-Jul-29 19:00 060 7 27.0
2015-Jul-29 18:30 060 8 27.0
2015-Jul-29 18:00 050 11 28.0
2015-Jul-29 17:30 060 11 29.0
2015-Jul-29 17:00 050 13 29.0
2015-Jul-29 16:30 050 14 29.0
2015-Jul-29 16:00 050 15 30.0
2015-Jul-29 15:30 050 16 30.0
2015-Jul-29 15:00 040 18 30.0
2015-Jul-29 14:30 050 17 30.0
2015-Jul-29 14:00 050 15 31.0
2015-Jul-29 13:30 050 14 31.0
2015-Jul-29 13:00 050 13 31.0
2015-Jul-29 12:30 050 13 32.0
2015-Jul-29 12:00 050 12 32.0
2015-Jul-29 11:30 050 11 32.0
2015-Jul-29 11:00 050 9 32.0
2015-Jul-29 10:30 040 8 32.0
2015-Jul-29 10:00 040 7 32.0
2015-Jul-29 09:30 050 7 31.0
2015-Jul-29 09:00 040 7 30.0
2015-Jul-29 08:30 050 5 29.0
2015-Jul-29 08:00 070 5 29.0
2015-Jul-29 07:30 070 4 28.0
2015-Jul-29 07:00 080 3 27.0
2015-Jul-29 06:30 26.0
2015-Jul-29 06:00 160 2 23.0
2015-Jul-29 05:30 180 1 22.0
2015-Jul-29 05:00 160 3 21.0
2015-Jul-29 04:30 150 2 21.0
2015-Jul-29 04:00 21.0
2015-Jul-29 03:30 21.0
2015-Jul-29 03:00 22.0
2015-Jul-29 02:30 170 2 21.0
2015-Jul-29 02:00 140 3 22.0
2015-Jul-29 01:30 120 3 23.0
2015-Jul-29 01:00 140 3 23.0
2015-Jul-29 00:30 120 3 23.0
2015-Jul-29 00:00 150 3 23.0
2015-Jul-28 23:30 080 5 24.0
2015-Jul-28 22:00 060 7 25.0
2015-Jul-28 21:30 050 7 25.0
2015-Jul-28 21:00 050 7 25.0
2015-Jul-28 20:30 060 6 26.0
2015-Jul-28 20:00 070 6 5.426.0
2015-Jul-28 19:30 070 7 26.0
2015-Jul-28 19:00 050 10 5.427.0
2015-Jul-28 18:30 050 10 27.0
2015-Jul-28 18:00 050 11 28.0
2015-Jul-28 17:30 050 12 28.0
2015-Jul-28 17:00 050 12 29.0
2015-Jul-28 16:30 050 13 29.0
2015-Jul-28 16:00 050 13 30.0
2015-Jul-28 15:30 040 15 30.0
2015-Jul-28 15:00 050 14 30.0
2015-Jul-28 14:30 050 14 5.430.0
2015-Jul-28 14:00 040 15 5.430.0
2015-Jul-28 13:30 040 14 5.430.0
2015-Jul-28 13:00 040 14 5.430.0
2015-Jul-28 12:30 040 14 5.430.0
2015-Jul-28 12:00 030 14 5.430.0
2015-Jul-28 11:30 040 12 5.430.0
2015-Jul-28 11:00 040 11 5.430.0
2015-Jul-28 10:30 040 10 5.430.0
2015-Jul-28 10:00 040 9 5.430.0
2015-Jul-28 09:30 050 8 5.430.0
2015-Jul-28 09:00 060 7 5.429.0
2015-Jul-28 08:30 040 6 5.429.0
2015-Jul-28 08:00 080 5 5.429.0
2015-Jul-28 07:30 060 4 5.429.0
2015-Jul-28 07:00 27.0
2015-Jul-28 06:30 25.0
2015-Jul-28 06:00 180 3 22.0
2015-Jul-28 05:30 190 3 21.0
2015-Jul-28 05:00 150 5 20.0
2015-Jul-28 04:30 160 4 20.0
2015-Jul-28 04:00 20.0
2015-Jul-28 03:30 170 2 20.0
2015-Jul-28 03:00 160 2 20.0
2015-Jul-28 02:30 150 2 20.0
2015-Jul-28 02:00 170 2 20.0
2015-Jul-28 01:30 180 2 21.0
2015-Jul-28 01:00 160 2 21.0
2015-Jul-28 00:30 230 2 22.0
2015-Jul-28 00:00 23.0
2015-Jul-27 23:30 210 5 23.0
2015-Jul-27 23:00 23.0
2015-Jul-27 22:30 320 2 24.0
2015-Jul-27 22:00 270 3 24.0